Theta_e
310 311 316 319 324 323 328 327 325 341 342 342 341 343 340 341 345 344 346 346 350 342 342 342 339 337 334 324 319 321 323 327 330 329 324 325 325 325 327 328 328 329 330 330 330 331 331 330 330
310 311 315 322 323 325 325 324 325 327 337 337 338 343 342 344 348 348 347 348 349 342 341 342 340 338 335 325 319 320 320 320 321 322 324 325 324 325 324 324 324 324 324 325 327 327 327 327 326
311 311 319 319 320 325 325 323 326 327 330 338 336 343 344 349 348 348 346 348 346 342 341 342 341 338 335 327 319 320 319 320 321 324 325 324 323 323 323 323 322 322 322 322 322 322 322 322 322
311 312 317 319 322 320 323 324 323 334 338 339 339 342 348 349 348 348 343 345 343 342 342 342 341 338 335 329 319 319 320 321 323 324 324 322 322 322 322 322 321 321 321 321 321 321 321 320 320
312 312 312 316 319 320 321 324 325 325 327 336 340 347 348 349 349 347 343 343 342 341 343 343 341 339 336 331 321 319 320 322 324 323 322 322 322 322 322 322 322 322 322 322 321 321 321 321 321
311 312 312 315 317 320 322 325 325 325 326 328 345 348 347 348 348 345 340 341 340 341 341 343 341 339 336 334 326 319 321 324 324 323 322 322 322 322 322 322 321 321 321 321 321 321 321 321 321
307 308 312 315 315 317 320 325 323 324 324 326 342 349 347 348 348 345 343 339 336 337 340 343 341 339 338 336 331 322 319 323 325 324 323 322 322 322 321 321 321 321 321 321 320 320 320 320 321
312 307 310 313 315 314 318 322 324 325 326 328 337 347 347 347 348 346 344 339 333 333 337 342 342 340 339 336 334 328 320 320 323 324 323 322 322 322 322 322 322 322 322 321 321 320 320 324 331
312 307 306 310 314 316 317 318 321 325 334 342 344 344 345 346 348 346 342 335 333 333 334 339 341 339 338 337 335 332 324 319 321 323 323 323 323 322 322 321 321 321 323 322 322 329 323 331 333
307 305 308 308 312 314 315 316 319 328 347 347 348 346 344 346 347 343 338 334 332 330 330 331 335 336 337 337 337 334 328 321 319 322 322 323 323 322 321 320 322 332 333 333 335 335 335 335 335
313 312 308 311 314 314 313 315 317 325 339 348 347 346 344 346 344 339 336 334 331 328 328 328 331 335 335 335 337 334 328 323 319 320 322 322 322 322 320 323 329 337 337 337 337 337 336 336 338
315 312 313 312 314 314 313 315 315 316 318 323 319 326 344 346 344 338 335 333 330 331 329 326 328 335 335 335 335 331 326 322 319 319 321 322 322 320 330 331 338 340 340 338 338 338 338 340 341
315 314 315 315 315 315 315 314 314 316 317 318 319 320 342 345 345 339 335 333 331 332 330 327 325 329 332 335 331 327 324 322 319 319 320 321 321 322 338 341 341 340 340 339 337 342 346 346 346
314 316 316 316 315 314 313 313 315 317 317 318 319 326 342 345 344 342 337 334 333 333 332 328 325 326 329 327 325 324 323 322 320 320 320 321 325 337 343 343 342 342 341 343 345 346 346 346 345
317 316 315 316 316 313 314 313 313 316 317 317 319 332 345 345 345 344 341 337 333 333 332 329 325 325 324 322 321 322 323 321 319 320 321 326 331 341 344 345 344 344 342 345 347 345 346 345 345
317 314 315 313 315 314 314 314 313 316 316 317 318 327 346 344 345 345 344 342 340 335 333 330 326 326 326 325 324 324 324 325 328 331 333 337 338 345 345 347 345 345 344 344 347 347 346 346 341
316 315 315 316 314 313 313 313 313 316 316 317 318 335 344 342 342 344 345 344 343 343 339 332 328 328 329 330 331 332 334 335 337 341 345 347 344 346 348 348 348 346 348 347 348 346 340 337 326
319 318 315 316 311 313 314 312 311 314 315 316 318 334 343 342 342 341 342 346 345 343 342 337 331 329 331 333 335 339 340 337 342 345 347 347 348 348 348 347 346 349 348 347 345 340 328 315 313
319 317 314 314 313 312 310 313 312 313 314 315 320 339 343 342 343 343 343 344 345 344 343 339 334 331 332 334 341 344 344 344 344 345 344 346 346 346 345 345 345 343 348 342 333 317 313 313 313
320 320 319 314 314 311 309 311 312 311 312 316 322 340 342 343 345 345 343 344 344 345 344 340 334 334 334 335 341 345 345 344 345 346 344 346 346 342 342 343 338 340 340 326 315 314 314 313 311
320 320 319 315 314 312 310 312 312 321 331 323 326 334 342 343 345 347 346 345 345 345 345 344 343 342 343 337 340 339 332 334 336 334 339 338 338 337 341 342 338 337 318 314 315 315 315 312 309
320 318 319 319 313 313 312 311 312 319 330 331 328 333 337 341 343 346 346 346 346 345 344 344 344 339 339 336 334 334 333 333 331 333 334 340 339 334 337 331 336 315 315 315 316 316 315 312 309
318 317 317 319 314 313 313 311 312 325 330 331 329 333 334 336 341 342 345 345 345 344 342 343 341 335 338 338 335 335 338 336 335 332 332 339 337 337 334 335 315 315 316 316 316 316 316 313 310
317 317 314 312 311 313 313 313 313 319 318 329 331 333 336 336 338 340 339 341 340 338 338 338 335 335 338 339 339 340 338 337 335 333 337 339 336 333 334 316 316 316 316 317 317 316 316 313 311
315 313 315 315 316 315 314 316 313 314 315 324 330 332 334 337 336 335 337 337 337 337 338 339 340 340 339 338 338 337 336 336 335 336 336 337 336 333 318 317 316 317 317 317 317 316 316 313 310
314 313 315 317 318 316 317 317 316 315 315 325 327 328 333 335 337 337 338 340 339 338 338 338 339 340 338 336 335 335 335 336 338 336 336 333 332 319 318 317 317 317 317 317 317 317 315 310 305
316 316 315 316 317 315 316 316 315 318 323 329 332 333 334 335 336 337 337 336 337 337 339 337 337 337 335 335 337 336 336 336 337 336 332 334 320 319 318 319 318 318 317 318 317 316 312 305 305
314 315 318 316 320 319 318 319 316 318 321 326 330 333 335 336 336 337 337 337 339 338 337 336 336 335 336 339 337 340 338 336 332 332 335 326 319 320 321 319 318 318 317 318 317 313 306 305 307
314 315 316 317 319 320 321 317 317 326 325 317 321 331 334 337 337 338 339 339 336 334 334 334 335 336 339 334 337 334 334 335 332 333 330 319 320 322 321 319 318 317 317 317 315 307 306 307 308
312 314 315 317 321 319 321 320 323 327 327 326 323 319 328 328 332 335 338 336 333 335 334 334 334 337 337 336 337 335 333 336 336 333 322 322 323 323 321 318 317 317 317 314 307 306 306 309 309
Wind_Speed
14 12 5 2 2 4 3 6 3 4 1 3 5 3 4 3 5 4 3 24 38 40 37 33 28 24 19 17 19 22 23 22 20 19 17 16 15 15 15 14 13 12 11 9 9 8 6 5 4
11 11 6 3 4 2 5 4 7 8 4 5 2 4 3 4 3 4 12 27 39 39 37 34 30 25 20 17 20 22 23 22 22 20 18 16 16 15 14 12 11 10 8 7 6 6 4 3 2
10 11 6 4 4 9 6 6 9 3 11 14 4 3 0 3 6 7 17 34 40 38 36 33 29 25 21 18 21 23 23 22 21 20 18 16 15 14 13 11 10 9 7 6 5 5 4 3 2
10 8 3 4 10 7 7 5 6 2 1 4 7 3 3 1 2 12 33 38 40 37 35 33 30 26 22 20 21 23 23 22 21 20 19 17 16 14 13 11 10 8 7 6 4 4 3 3 2
14 5 3 4 9 4 6 10 3 2 3 3 8 3 4 7 5 15 38 36 38 36 35 33 30 26 23 21 21 23 24 23 21 20 19 17 15 13 12 10 8 7 6 5 4 3 2 3 3
8 3 2 13 7 6 5 13 14 3 5 8 4 4 3 5 12 24 32 33 35 35 34 33 30 26 24 22 21 23 24 23 21 20 18 16 14 12 11 10 8 6 5 4 2 1 2 3 4
5 4 5 3 18 6 4 13 6 4 7 10 6 4 3 13 19 30 30 32 32 34 35 33 30 27 24 22 21 21 24 23 21 19 17 15 13 12 10 8 6 4 3 2 1 1 2 3 5
5 3 5 6 7 9 4 8 27 15 18 14 9 6 7 23 25 29 34 35 33 34 34 34 31 29 27 25 22 20 22 23 21 19 17 15 14 12 9 8 6 4 3 3 2 2 2 4 5
7 1 6 6 7 4 5 6 12 5 11 5 9 8 5 23 30 33 38 37 35 34 34 34 33 31 28 26 24 22 21 22 23 20 18 16 14 11 9 8 6 5 4 3 1 3 2 3 4
6 5 5 5 6 6 5 5 4 3 4 5 7 10 9 24 33 40 45 43 39 36 35 34 34 33 31 29 27 24 22 22 23 22 19 16 13 11 10 8 7 5 3 1 1 2 3 4 5
7 5 5 3 10 7 3 3 2 3 4 8 5 16 16 30 35 39 41 39 40 35 34 35 34 34 32 31 28 26 24 22 22 22 19 16 15 13 10 9 9 6 4 2 2 3 5 7 9
3 9 7 6 3 2 3 7 3 8 7 7 6 10 22 34 36 41 41 40 37 36 32 31 33 34 33 30 29 25 24 22 22 22 20 18 15 12 10 9 8 6 5 3 4 6 8 10 12
2 2 11 26 10 8 13 12 8 13 19 17 16 16 24 34 36 36 35 35 33 34 31 29 30 31 29 28 25 24 23 22 21 21 19 16 14 12 11 9 8 7 5 5 5 7 10 12 14
2 14 18 7 9 8 3 7 6 13 20 20 15 13 23 32 33 29 33 34 34 31 30 27 26 26 25 23 22 21 20 19 18 18 16 15 13 11 9 8 7 7 5 5 4 7 10 14 17
7 2 4 18 15 6 6 9 20 25 14 14 14 10 15 25 24 27 31 30 30 30 28 26 24 22 21 18 17 18 16 17 16 15 15 14 15 12 9 8 8 8 9 7 7 9 13 16 20
7 7 4 6 15 10 7 19 12 23 19 21 22 12 17 20 22 27 28 25 22 26 32 28 26 23 20 16 13 12 13 13 12 13 14 14 14 13 11 8 9 11 11 10 10 12 16 19 21
2 5 7 3 16 9 15 1 8 15 23 22 24 13 20 20 22 20 25 27 29 28 31 31 27 24 20 17 13 12 12 13 15 15 13 12 12 13 11 10 11 13 10 12 14 16 16 17 17
3 3 8 8 8 15 16 8 4 13 18 23 21 14 26 23 21 22 21 23 27 31 31 29 29 27 24 20 17 16 14 16 19 18 15 16 13 15 15 13 10 11 9 12 14 13 12 14 17
5 3 7 9 6 7 3 14 14 5 10 13 17 15 27 28 22 19 21 25 29 29 31 31 32 29 26 24 22 19 19 18 16 20 17 20 21 18 16 14 8 15 11 11 8 9 11 15 19
4 2 4 3 5 5 8 9 16 4 6 15 17 17 27 30 29 27 23 23 26 28 35 35 34 30 29 25 25 18 12 17 17 13 17 19 20 18 15 15 12 13 16 8 7 7 13 16 21
6 4 2 2 2 3 7 2 6 2 2 13 16 18 29 36 37 33 33 30 29 30 36 38 34 28 28 20 22 22 15 19 26 15 22 27 21 17 20 13 12 12 7 7 5 11 14 19 21
4 6 6 6 1 5 3 4 5 5 3 5 15 18 28 37 40 39 38 37 34 32 30 34 36 31 33 29 30 34 32 27 29 32 35 32 33 24 15 11 13 11 8 5 8 12 16 20 22
6 5 7 6 3 4 1 4 5 4 5 9 10 22 23 29 38 42 42 38 35 33 32 34 37 33 39 36 28 23 26 26 24 31 29 27 13 12 15 16 14 10 4 6 9 14 18 22 23
5 2 3 4 2 2 4 4 4 8 11 2 4 14 24 26 31 37 40 37 37 37 39 40 38 33 28 29 28 27 28 33 26 30 22 19 16 19 15 16 15 7 4 7 12 16 20 23 23
4 4 2 2 1 5 4 2 8 4 6 11 12 21 24 26 31 29 31 34 36 36 32 30 26 20 21 20 18 20 27 31 28 31 22 18 15 14 20 18 9 5 5 9 13 18 21 24 25
5 7 4 5 5 3 3 5 5 4 6 11 24 20 24 26 27 31 33 34 29 26 25 26 25 24 23 25 22 24 24 26 22 22 18 8 10 21 20 12 8 5 7 11 17 21 24 25 24
4 4 3 5 2 4 3 4 8 5 5 4 11 19 21 26 29 30 30 28 26 25 23 23 24 27 27 20 21 26 24 27 23 19 18 18 19 23 17 12 8 7 10 15 19 23 25 25 23
4 4 1 2 4 4 0 2 2 4 3 6 7 14 24 26 28 26 26 25 25 21 22 22 21 20 17 19 25 24 21 21 22 23 19 22 25 21 16 11 9 9 13 17 21 24 23 23 24
2 2 4 4 2 4 3 2 4 4 3 8 7 20 24 25 25 27 25 22 17 18 18 21 20 18 19 25 29 26 25 20 24 22 24 25 23 19 14 12 10 11 15 20 24 23 23 23 21
6 6 4 4 2 2 3 3 5 4 4 2 10 21 22 26 28 29 26 20 20 15 17 25 25 28 19 24 24 20 27 25 27 26 27 26 22 18 14 11 11 15 18 21 22 22 22 21 18
Wind_Direction
237 233 238 255 47 60 241 248 267 279 227 213 105 181 201 209 205 209 219 178 177 170 171 173 173 170 172 175 172 170 170 172 172 168 162 154 150 147 147 139 133 131 129 124 119 117 109 100 83
224 214 198 135 124 178 246 238 226 237 355 341 269 237 172 239 261 282 152 168 175 170 171 171 174 172 171 174 170 167 164 165 164 164 162 159 159 156 148 141 138 135 131 132 129 126 122 106 68
201 184 168 152 181 211 218 218 246 243 279 277 255 225 168 296 285 180 160 162 172 173 171 171 174 174 172 173 170 167 164 164 165 165 165 164 162 154 146 143 139 134 132 128 123 121 112 101 78
172 165 144 151 221 244 209 210 177 166 349 275 257 111 93 130 211 180 163 163 171 174 174 173 176 177 174 173 172 169 167 168 169 170 170 167 162 156 151 145 140 133 129 124 119 107 95 78 47
179 167 155 203 240 233 233 263 208 182 303 284 303 229 139 201 196 189 163 167 173 176 175 178 178 178 177 176 173 173 172 174 175 174 172 168 162 158 151 144 138 137 135 132 124 102 72 38 8
187 170 156 212 227 228 244 245 263 237 241 288 227 160 186 189 161 166 168 170 175 179 180 180 179 180 181 182 178 177 177 180 178 177 174 168 164 160 155 152 150 153 151 146 130 91 33 3 343
166 124 210 196 222 255 215 233 232 272 277 276 206 144 235 181 170 165 171 174 179 183 182 182 179 181 184 187 185 183 184 185 184 181 177 172 169 168 164 158 157 159 164 169 166 344 345 346 336
212 135 186 215 187 243 222 196 235 235 261 268 206 194 219 184 180 174 176 177 180 185 185 184 182 185 188 190 192 189 191 191 191 187 181 179 179 178 173 169 174 186 202 221 242 281 317 337 345
186 209 218 196 153 225 202 195 225 233 234 207 201 242 265 181 179 176 176 179 182 185 188 189 188 189 192 195 196 195 197 196 195 195 190 187 185 185 187 192 193 204 219 233 276 324 340 341 341
179 194 217 202 191 178 187 196 197 191 221 229 224 228 239 187 178 178 181 182 185 187 190 194 194 194 195 198 201 200 201 200 200 199 198 196 195 197 205 207 202 194 189 166 38 21 18 350 332
199 225 165 250 206 189 196 271 230 166 203 238 236 226 209 190 184 187 189 190 188 188 194 196 197 196 198 201 203 205 205 204 204 203 204 204 206 211 214 203 197 200 215 235 286 303 315 316 317
199 196 228 203 232 148 186 292 284 235 229 220 273 321 217 195 192 195 193 194 190 192 196 200 199 199 201 204 207 210 210 207 207 206 208 211 216 223 212 202 201 211 231 227 287 304 312 318 323
188 292 201 240 252 271 290 274 269 256 246 258 272 293 222 205 199 198 200 199 197 197 198 202 204 205 206 208 212 214 215 214 212 210 213 218 223 224 218 213 224 232 252 276 291 310 317 316 321
156 196 253 264 237 254 251 259 247 259 257 252 272 302 213 201 198 198 201 204 200 201 202 204 205 205 207 211 214 219 220 221 220 217 219 223 224 215 225 232 243 260 269 282 292 309 315 315 315
288 191 215 237 247 233 228 267 237 237 247 274 256 284 193 200 198 207 205 204 204 207 207 205 203 205 208 210 215 220 225 227 226 225 224 228 226 223 229 247 247 270 282 290 286 317 314 309 309
172 160 167 228 211 232 203 248 253 244 241 250 258 248 186 179 192 202 205 208 208 214 211 205 205 199 202 202 207 216 223 231 230 233 233 229 223 221 228 252 269 283 287 282 290 301 304 308 314
265 171 171 250 206 200 192 235 201 234 215 230 247 208 187 171 174 178 201 215 216 213 208 204 203 200 198 197 202 215 231 235 223 216 220 224 221 229 230 250 266 284 288 292 289 300 306 312 321
201 167 197 213 198 203 211 252 312 214 197 209 231 200 190 187 176 184 187 200 210 210 207 206 201 199 197 197 198 207 226 243 236 221 216 233 236 245 239 244 253 270 274 295 300 306 313 329 336
11 178 156 227 230 162 175 202 248 232 226 224 228 184 187 183 172 177 182 194 201 209 204 205 202 199 199 199 198 211 227 243 261 267 240 238 246 247 248 239 259 268 277 292 303 312 335 342 344
272 352 295 209 184 147 175 193 234 177 230 206 205 183 179 174 169 176 189 192 200 201 203 201 201 200 199 200 205 209 256 265 259 268 250 244 237 241 252 253 261 289 303 283 296 330 352 350 353
238 210 253 214 139 165 143 179 192 215 234 227 217 198 190 187 177 175 183 196 201 208 204 204 204 198 202 200 200 207 217 265 250 248 257 258 245 239 244 257 267 278 238 258 321 354 355 1 358
220 207 224 285 105 171 154 222 255 198 199 249 219 212 187 187 186 183 182 185 196 206 204 202 201 207 207 221 224 232 246 207 246 235 230 232 236 222 234 257 277 220 235 283 348 351 353 355 355
226 226 201 226 234 112 276 102 239 133 206 224 227 214 211 203 197 196 196 197 194 195 203 203 203 221 223 224 225 239 234 221 261 236 222 213 216 218 240 243 209 216 247 331 343 348 350 351 349
168 184 45 55 84 53 230 131 250 197 199 185 257 212 211 211 209 205 203 204 210 215 214 218 232 241 241 239 242 246 241 237 240 220 227 219 218 236 221 196 214 229 285 335 343 343 347 344 340
103 99 83 64 99 203 274 101 230 222 198 178 203 213 207 208 209 205 204 212 219 223 226 227 230 230 234 236 240 241 246 235 239 212 216 216 223 219 194 201 207 241 311 330 338 338 339 336 331
173 167 158 166 166 185 93 216 258 255 225 192 202 203 198 204 209 211 217 219 223 230 233 236 235 234 235 243 241 241 222 220 203 196 212 226 207 190 203 203 218 260 306 324 333 333 331 327 323
193 204 163 110 347 98 198 297 316 352 75 113 170 200 203 202 205 209 216 214 216 231 243 238 234 241 246 246 228 216 212 197 191 173 174 221 180 201 208 213 232 270 307 325 327 324 324 322 324
150 159 146 359 139 161 96 207 228 24 307 150 172 198 206 207 210 213 216 219 227 232 237 232 231 233 213 204 196 181 175 182 180 178 197 185 192 203 210 221 249 290 314 319 318 320 321 322 322
91 40 58 111 97 142 126 251 223 269 273 285 267 202 198 206 217 217 215 213 217 220 223 213 205 201 192 186 191 188 186 195 192 202 188 184 199 207 218 241 270 300 313 315 318 317 320 321 323
168 179 153 120 237 68 117 269 117 262 312 268 286 260 230 210 214 219 211 202 196 201 191 195 203 199 199 193 204 212 214 194 193 189 181 191 198 205 222 251 287 305 310 314 314 320 323 324 333